Observations for Trim Patrick St
| Time | AQI | Temp °C | Hum % | Pres Pa | CO μg/m³ | H₂S μg/m³ | NO μg/m³ | NO₂ μg/m³ | O₃ μg/m³ | SO₂ μg/m³ | PM1 μg/m³ | PM2.5 μg/m³ | PM10 μg/m³ |
|---|---|---|---|---|---|---|---|---|---|---|---|---|---|
| Saturday 8 August 2026 | |||||||||||||
| 20:50 | 3 | 24.3 | 50 | 69,280 | 0 | 34.74 | 1 | 47.69 | 43.03 | 14.01 | 2.86 | 7.91 | 8.7 |
| 20:45 | 3 | 24.7 | 49 | 69,202 | 0 | 34.08 | 0.96 | 52.17 | 44.02 | 14.34 | 2.86 | 7.98 | 8.78 |
| 20:44 | 3 | 24.8 | 48 | 69,183 | 0 | 34.32 | 0.96 | 57.73 | 54.42 | 14.38 | 2.86 | 8.04 | 8.85 |
| 20:43 | 3 | 24.9 | 47 | 69,157 | 0 | 34.53 | 0.97 | 51.33 | 49.14 | 14.53 | 2 | 7.37 | 8.11 |
| 20:42 | 3 | 25 | 47 | 69,134 | 0 | 32.27 | 0.95 | 61.6 | 48.57 | 14.28 | 2.86 | 8.12 | 8.93 |
| 20:41 | 3 | 25.1 | 46 | 69,128 | 0 | 30.01 | 0.95 | 47.53 | 46.91 | 13.95 | 2.86 | 8.19 | 9.01 |
| 20:40 | 3 | 25.3 | 47 | 69,126 | 0 | 30.73 | 0.95 | 35.45 | 52.82 | 14.79 | 2 | 6.62 | 7.28 |
| 20:39 | 3 | 25.4 | 47 | 69,128 | 0 | 30.72 | 0.93 | 48.21 | 51.42 | 14.11 | 2.86 | 8.16 | 8.97 |
| 20:38 | 3 | 25.5 | 46 | 69,128 | 0 | 32.29 | 0.91 | 42.65 | 57.87 | 14.65 | 4.57 | 9.74 | 10.71 |
| 20:37 | 3 | 25.6 | 47 | 69,104 | 0 | 33.78 | 0.91 | 39.83 | 52.37 | 14.9 | 2.86 | 7.39 | 8.12 |
| 20:36 | 3 | 25.8 | 47 | 69,100 | 0 | 34.52 | 0.88 | 49.1 | 60.46 | 14.79 | 2.86 | 8.14 | 8.96 |
| 20:35 | 3 | 25.9 | 46 | 69,098 | 0 | 34.31 | 0.87 | 45.91 | 64.25 | 15.55 | 2 | 7.41 | 8.15 |
| 20:34 | 3 | 26 | 46 | 69,100 | 0 | 33.19 | 0.86 | 49.84 | 67.04 | 15.62 | 3.71 | 9.77 | 10.75 |
| 20:33 | 3 | 26.1 | 44 | 69,098 | 0 | 31.7 | 0.88 | 43.95 | 53.64 | 14.67 | 2.86 | 8.37 | 9.21 |
| 20:32 | 3 | 26.2 | 44 | 69,100 | 0 | 32.28 | 0.89 | 46.36 | 66.76 | 15.27 | 2 | 7.57 | 8.32 |
| 20:31 | 3 | 26.3 | 44 | 69,104 | 0 | 28.02 | 0.9 | 53.77 | 62.49 | 14.52 | 2.86 | 8.37 | 9.21 |
| 20:30 | 3 | 26.3 | 42 | 69,112 | 0 | 20.24 | 0.93 | 33.67 | 65.62 | 12.92 | 2.86 | 7.69 | 8.46 |
| 20:29 | 3 | 26.4 | 41 | 69,118 | 0 | 12.41 | 0.95 | 22.51 | 57.02 | 11.53 | 2.86 | 8.53 | 9.38 |
| 20:28 | 3 | 26.5 | 41 | 69,126 | 0 | 12.22 | 0.93 | 19 | 61.08 | 11.34 | 2.86 | 8.53 | 9.39 |
| 20:27 | 3 | 26.5 | 41 | 69,136 | 0 | 11.79 | 0.91 | 16.51 | 62.01 | 11.9 | 2.86 | 7.74 | 8.52 |